User: anonymous   Login
Location: Unspecified
(0.0000°N, 0.0000°E)
Time: 19:05:01
(UTC+00:00)
Language:

AO-27 - Orbit

View from above orbital plane
View from above orbital plane
View from above satellite
View from above satellite

Ground track
Ground track

The orbit data is extracted from the following two-line orbital elements,

1 22825U 93061C   21292.28411555  .00000020  00000-0  25631-4 0  9998
2 22825  98.9128 312.9101 0009080  40.1511 320.0340 14.30127867463682
Epoch (UTC): 19 October 2021 06:49:07
Eccentricity: 0.0009080
inclination: 98.9128°
perigee height: 785 km
apogee height: 798 km
right ascension of ascending node: 312.9101°
argument of perigee: 40.1511°
revolutions per day: 14.30127867
mean anomaly at epoch: 320.0340°
orbit number at epoch: 46368

The dashed part of the orbit path shows where the satellite is in the earth's shadow,  

DLR